TimePDT,TemperatureF,Dew PointF,Humidity,Sea Level PressureIn,VisibilityMPH,Wind Direction,Wind SpeedMPH,Gust SpeedMPH,PrecipitationIn,Events,Conditions,WindDirDegrees,DateUTC
12:15 AM,55.4,55.4,100,29.97,10.0,Calm,Calm,-,N/A,,Scattered Clouds,0,2013-09-24 07:15:00
12:35 AM,55.4,55.4,100,29.97,10.0,NW,3.5,-,N/A,,Partly Cloudy,310,2013-09-24 07:35:00
12:55 AM,55.4,55.4,100,29.97,10.0,WNW,6.9,-,N/A,,Clear,290,2013-09-24 07:55:00
1:15 AM,57.2,57.2,100,29.96,10.0,West,5.8,-,N/A,,Clear,280,2013-09-24 08:15:00
1:35 AM,57.2,55.4,94,29.96,10.0,WNW,4.6,-,N/A,,Scattered Clouds,300,2013-09-24 08:35:00
1:55 AM,55.4,55.4,100,29.96,10.0,NW,4.6,-,N/A,,Mostly Cloudy,310,2013-09-24 08:55:00
2:15 AM,55.4,53.6,94,29.96,10.0,NW,3.5,-,N/A,,Overcast,310,2013-09-24 09:15:00
2:35 AM,55.4,53.6,94,29.96,10.0,NW,3.5,-,N/A,,Mostly Cloudy,310,2013-09-24 09:35:00
2:55 AM,53.6,53.6,100,29.96,10.0,Calm,Calm,-,N/A,,Overcast,0,2013-09-24 09:55:00
3:15 AM,53.6,53.6,100,29.96,10.0,Calm,Calm,-,N/A,,Mostly Cloudy,0,2013-09-24 10:15:00
3:35 AM,53.6,53.6,100,29.96,10.0,NNW,3.5,-,N/A,,Overcast,330,2013-09-24 10:35:00
3:55 AM,53.6,53.6,100,29.96,10.0,Calm,Calm,-,N/A,,Mostly Cloudy,0,2013-09-24 10:55:00
4:15 AM,53.6,53.6,100,29.96,10.0,NW,3.5,-,N/A,,Overcast,310,2013-09-24 11:15:00
4:35 AM,55.4,53.6,94,29.96,10.0,NW,3.5,-,N/A,,Mostly Cloudy,320,2013-09-24 11:35:00
4:55 AM,53.6,53.6,100,29.96,10.0,Calm,Calm,-,N/A,,Partly Cloudy,0,2013-09-24 11:55:00
5:15 AM,53.6,53.6,100,29.95,10.0,Calm,Calm,-,N/A,,Clear,0,2013-09-24 12:15:00
5:35 AM,53.6,53.6,100,29.96,10.0,NW,3.5,-,N/A,,Clear,320,2013-09-24 12:35:00
5:55 AM,55.4,51.8,88,29.97,10.0,WNW,6.9,-,N/A,,Scattered Clouds,300,2013-09-24 12:55:00
6:15 AM,55.4,51.8,88,29.97,10.0,WNW,8.1,-,N/A,,Partly Cloudy,290,2013-09-24 13:15:00
6:35 AM,55.4,51.8,88,29.97,10.0,West,9.2,-,N/A,,Partly Cloudy,280,2013-09-24 13:35:00
6:55 AM,55.4,51.8,88,29.98,10.0,WNW,8.1,-,N/A,,Clear,290,2013-09-24 13:55:00
7:15 AM,55.4,51.8,88,29.97,9.0,WNW,8.1,-,N/A,,Clear,290,2013-09-24 14:15:00
7:35 AM,55.4,51.8,88,29.98,10.0,WNW,8.1,-,N/A,,Clear,290,2013-09-24 14:35:00
7:55 AM,55.4,51.8,88,29.98,10.0,WNW,6.9,-,N/A,,Clear,290,2013-09-24 14:55:00
8:15 AM,57.2,53.6,88,29.98,10.0,WNW,5.8,-,N/A,,Clear,300,2013-09-24 15:15:00
8:35 AM,57.2,53.6,88,29.98,10.0,WNW,5.8,-,N/A,,Clear,300,2013-09-24 15:35:00
8:55 AM,59.0,53.6,82,29.98,10.0,WNW,6.9,-,N/A,,Clear,290,2013-09-24 15:55:00
9:15 AM,62.6,53.6,72,29.99,10.0,WNW,5.8,-,N/A,,Clear,300,2013-09-24 16:15:00
9:35 AM,64.4,51.8,64,30.00,10.0,WNW,11.5,16.1,N/A,,Clear,290,2013-09-24 16:35:00
9:55 AM,66.2,50.0,56,30.00,10.0,WNW,11.5,18.4,N/A,,Clear,290,2013-09-24 16:55:00
10:15 AM,68.0,50.0,52,30.00,10.0,West,15.0,-,N/A,,Clear,280,2013-09-24 17:15:00
10:35 AM,69.8,48.2,46,30.00,10.0,WNW,16.1,20.7,N/A,,Clear,300,2013-09-24 17:35:00
10:55 AM,71.6,50.0,46,29.99,10.0,West,11.5,-,N/A,,Clear,280,2013-09-24 17:55:00
11:15 AM,73.4,48.2,41,29.99,10.0,WSW,10.4,18.4,N/A,,Clear,250,2013-09-24 18:15:00
11:35 AM,73.4,50.0,44,29.99,10.0,West,17.3,21.9,N/A,,Clear,260,2013-09-24 18:35:00
11:55 AM,73.4,50.0,44,29.99,10.0,WSW,13.8,23.0,N/A,,Clear,250,2013-09-24 18:55:00
12:15 PM,75.2,50.0,41,29.99,10.0,WSW,15.0,25.3,N/A,,Clear,250,2013-09-24 19:15:00
12:35 PM,73.4,50.0,44,29.99,10.0,West,21.9,28.8,N/A,,Clear,260,2013-09-24 19:35:00
12:55 PM,75.2,50.0,41,29.97,10.0,West,17.3,25.3,N/A,,Clear,260,2013-09-24 19:55:00
1:15 PM,75.2,50.0,41,29.96,10.0,West,13.8,18.4,N/A,,Clear,260,2013-09-24 20:15:00
1:35 PM,77.0,50.0,39,29.95,10.0,WSW,13.8,17.3,N/A,,Clear,240,2013-09-24 20:35:00
1:55 PM,77.0,50.0,39,29.94,10.0,West,15.0,19.6,N/A,,Clear,260,2013-09-24 20:55:00
2:15 PM,75.2,51.8,44,29.94,10.0,West,17.3,24.2,N/A,,Clear,270,2013-09-24 21:15:00
2:35 PM,75.2,51.8,44,29.94,10.0,West,15.0,28.8,N/A,,Clear,260,2013-09-24 21:35:00
2:55 PM,73.4,53.6,50,29.94,10.0,West,18.4,27.6,N/A,,Clear,270,2013-09-24 21:55:00
3:15 PM,73.4,51.8,47,29.94,10.0,West,24.2,32.2,N/A,,Clear,270,2013-09-24 22:15:00
3:35 PM,73.4,51.8,47,29.93,10.0,West,19.6,29.9,N/A,,Clear,260,2013-09-24 22:35:00
3:55 PM,73.4,51.8,47,29.93,10.0,West,24.2,29.9,N/A,,Clear,260,2013-09-24 22:55:00
4:15 PM,69.8,51.8,53,29.93,10.0,West,23.0,33.4,N/A,,Clear,280,2013-09-24 23:15:00
4:35 PM,68.0,51.8,56,29.93,10.0,West,24.2,33.4,N/A,,Clear,270,2013-09-24 23:35:00
4:55 PM,68.0,51.8,56,29.93,10.0,West,21.9,32.2,N/A,,Clear,270,2013-09-24 23:55:00
5:15 PM,68.0,51.8,56,29.93,10.0,West,21.9,29.9,N/A,,Clear,270,2013-09-25 00:15:00
5:35 PM,66.2,50.0,56,29.93,10.0,West,19.6,29.9,N/A,,Clear,280,2013-09-25 00:35:00
5:55 PM,66.2,50.0,56,29.93,10.0,West,20.7,25.3,N/A,,Clear,280,2013-09-25 00:55:00
6:15 PM,64.4,51.8,64,29.92,10.0,West,12.7,23.0,N/A,,Clear,270,2013-09-25 01:15:00
6:35 PM,64.4,51.8,64,29.93,10.0,West,16.1,24.2,N/A,,Clear,280,2013-09-25 01:35:00
6:55 PM,62.6,51.8,68,29.93,10.0,West,12.7,25.3,N/A,,Clear,280,2013-09-25 01:55:00
7:15 PM,60.8,51.8,72,29.93,10.0,West,13.8,26.5,N/A,,Clear,280,2013-09-25 02:15:00
7:35 PM,59.0,50.0,72,29.92,10.0,West,11.5,17.3,N/A,,Clear,280,2013-09-25 02:35:00
7:55 PM,59.0,50.0,72,29.93,10.0,WNW,11.5,-,N/A,,Clear,300,2013-09-25 02:55:00
8:15 PM,59.0,50.0,72,29.93,10.0,West,10.4,-,N/A,,Clear,280,2013-09-25 03:15:00
8:35 PM,59.0,50.0,72,29.93,10.0,West,12.7,16.1,N/A,,Clear,280,2013-09-25 03:35:00
8:55 PM,59.0,50.0,72,29.93,10.0,West,11.5,17.3,N/A,,Clear,270,2013-09-25 03:55:00
9:15 PM,57.2,50.0,77,29.93,10.0,West,15.0,-,N/A,,Clear,280,2013-09-25 04:15:00
9:35 PM,57.2,50.0,77,29.94,10.0,West,13.8,18.4,N/A,,Clear,280,2013-09-25 04:35:00
9:55 PM,57.2,50.0,77,29.94,10.0,West,12.7,-,N/A,,Clear,270,2013-09-25 04:55:00
10:15 PM,57.2,48.2,72,29.94,10.0,West,10.4,-,N/A,,Clear,280,2013-09-25 05:15:00
10:35 PM,57.2,48.2,72,29.94,10.0,West,11.5,-,N/A,,Clear,280,2013-09-25 05:35:00
10:55 PM,55.4,48.2,77,29.95,10.0,WNW,9.2,-,N/A,,Clear,290,2013-09-25 05:55:00
11:15 PM,55.4,48.2,77,29.95,10.0,WNW,8.1,-,N/A,,Clear,300,2013-09-25 06:15:00
11:35 PM,53.6,48.2,82,29.95,10.0,WNW,8.1,-,N/A,,Clear,290,2013-09-25 06:35:00
11:55 PM,53.6,48.2,82,29.94,10.0,WNW,4.6,-,N/A,,Clear,300,2013-09-25 06:55:00